Dewpoint
50 49 49 48 47 47 47 47 46 46 46 47 46 46 46 45 45 45 45 44 42 40 38 38 39 40 40 40 40 40 40 40 40 39 38 38 37 36 36 36 35 34 33 31 29 27 24 22 21 21 22 22 22 21 21 20 21 21 22 22 22 22 22 22 22 22 23 23 24
49 48 47 46 46 46 46 46 46 46 46 46 46 45 45 45 44 43 43 42 41 40 40 40 41 41 41 41 40 40 40 39 39 38 37 36 36 36 36 35 35 34 34 33 31 30 28 25 23 22 21 21 21 21 20 20 21 22 22 22 22 22 22 23 22 23 23 24 24
48 48 47 47 47 47 46 46 46 46 46 46 45 45 45 44 43 43 42 42 42 42 41 41 42 41 41 41 40 40 40 39 38 38 37 37 37 37 37 37 36 36 36 36 36 36 35 33 31 30 29 28 23 21 21 21 22 22 22 22 22 23 23 23 23 23 24 24 24
48 48 47 47 46 46 46 46 45 45 45 45 45 45 44 44 43 42 42 42 42 42 42 42 42 42 41 41 40 40 40 39 39 39 39 39 39 39 38 38 38 37 37 37 36 36 35 35 36 34 31 26 22 21 22 22 22 22 22 22 23 23 23 23 24 24 24 24 25
48 47 47 47 46 46 46 46 45 45 45 45 45 45 44 43 43 43 42 42 42 43 43 43 42 42 41 41 40 40 40 40 39 39 40 40 40 40 40 39 39 38 38 37 36 35 34 32 32 29 25 22 22 21 21 22 22 22 23 23 23 24 24 24 24 24 25 25 25
48 48 47 47 47 46 46 46 45 45 45 45 45 44 44 43 43 43 42 42 43 43 43 42 42 42 41 41 41 40 40 40 40 40 40 40 40 40 40 40 40 39 38 37 35 32 29 26 24 23 22 22 21 21 22 23 23 23 23 23 24 24 24 24 24 24 24 24 24
48 47 47 47 47 47 46 46 46 46 45 45 45 44 43 43 43 43 43 43 43 43 43 42 42 42 42 41 41 41 41 41 40 40 40 40 40 40 40 40 40 38 36 33 29 26 22 20 21 21 22 22 22 22 22 23 23 23 23 23 23 24 24 24 24 23 23 22 22
48 47 47 47 47 47 46 46 46 46 46 45 45 44 43 43 43 43 43 43 43 43 43 42 42 42 42 42 41 41 41 41 40 40 40 40 40 40 40 40 38 35 30 25 22 20 20 21 21 22 22 22 22 22 22 22 22 23 23 23 23 23 23 23 22 22 21 20 20
47 47 47 47 47 47 46 46 46 46 46 46 45 44 44 43 43 43 43 43 43 43 43 43 43 43 42 42 42 41 41 41 41 41 40 40 40 40 40 38 33 28 22 19 19 19 20 22 22 22 22 22 22 22 21 22 22 22 22 23 23 23 22 22 21 20 19 18 18
47 47 47 47 47 46 46 47 47 47 46 46 45 45 44 43 43 43 43 43 43 43 43 43 43 43 43 43 42 42 41 41 40 40 40 40 40 38 36 32 25 20 17 17 19 20 21 22 22 22 21 21 21 21 21 22 22 22 22 22 22 21 21 20 19 18 18 17 17
47 46 46 46 46 46 46 47 47 46 46 46 45 45 44 43 43 43 43 43 43 43 43 43 43 43 43 43 43 42 41 40 40 39 39 38 37 35 30 24 18 16 15 17 20 21 22 22 21 21 20 20 20 20 21 22 22 22 22 21 20 19 18 18 17 17 16 15 15
46 46 46 46 46 46 46 46 46 46 45 45 45 44 43 43 43 43 43 43 43 43 44 44 44 43 43 43 42 41 40 39 38 37 36 35 33 29 23 18 15 14 16 18 19 20 20 20 20 20 19 19 20 20 21 21 21 21 20 20 19 18 17 17 16 15 15 14 14
46 46 46 46 46 46 46 45 45 45 45 44 44 43 43 43 43 43 43 43 43 43 44 44 44 43 43 42 41 39 37 36 35 34 33 31 27 22 18 14 14 15 16 18 19 19 19 19 19 19 19 19 20 21 21 21 21 20 19 18 18 17 16 16 15 15 14 14 14
46 46 46 46 46 45 45 45 45 45 44 44 43 43 43 43 42 42 42 43 43 43 43 43 43 43 42 40 38 35 33 31 30 29 28 26 22 18 14 13 14 15 17 18 18 19 19 19 19 19 19 19 20 21 21 21 20 19 19 18 17 17 16 15 15 14 13 13 13
46 46 46 46 46 45 45 45 45 45 44 44 43 43 43 43 42 42 42 42 42 43 43 43 42 41 40 38 35 31 28 26 25 24 23 20 17 14 13 13 14 15 17 18 18 18 18 18 18 18 19 19 20 21 21 20 20 19 18 18 17 16 15 15 14 14 13 13 13
46 46 46 46 45 45 45 45 45 45 44 44 43 43 43 42 42 42 42 42 42 42 42 41 41 40 37 34 31 27 24 22 22 21 19 17 14 13 13 13 14 16 17 18 18 18 18 19 18 18 19 20 21 21 21 20 19 18 18 17 16 16 15 15 14 13 13 13 13
46 46 46 45 45 45 45 45 45 45 44 44 44 43 43 42 42 42 42 42 41 41 40 40 39 37 34 30 27 24 22 20 19 18 16 14 13 13 13 13 15 16 17 17 18 18 18 19 19 19 19 20 21 21 20 19 18 18 17 16 16 15 15 15 14 13 13 13 13
46 46 46 45 45 45 45 45 45 45 44 44 44 43 43 42 42 42 41 41 40 40 39 38 36 34 31 27 25 22 21 18 18 16 15 13 12 12 13 14 15 16 17 17 18 18 18 18 18 19 20 21 20 20 19 18 18 17 16 16 15 14 14 14 13 13 13 13 13
46 47 46 46 45 45 45 45 45 45 44 44 44 43 43 42 42 41 41 40 39 38 36 35 33 31 28 25 23 21 20 18 16 15 13 13 12 12 13 14 15 16 17 17 17 18 18 18 19 20 20 20 19 19 18 17 17 16 15 15 14 13 13 13 13 12 13 13 13
45 47 47 47 46 45 45 45 45 45 44 44 44 43 43 42 41 41 40 40 37 36 34 32 31 28 26 23 21 19 18 18 16 14 13 12 12 13 13 15 16 16 17 17 17 18 18 19 20 20 20 19 18 18 17 16 16 15 14 13 13 13 13 13 12 12 12 12 12
44 46 47 48 47 46 45 45 45 44 44 44 44 43 42 42 41 40 39 38 36 33 31 29 28 26 23 21 19 18 18 18 16 14 13 13 12 13 14 15 16 16 17 17 17 18 19 20 20 20 19 18 18 17 16 15 14 14 13 13 13 13 12 12 12 12 12 12 12
43 45 47 48 48 47 46 46 45 44 44 44 43 43 42 41 40 38 37 36 33 31 29 28 26 24 21 20 18 18 17 18 17 15 14 13 13 14 15 16 16 16 17 17 18 19 19 20 20 19 18 18 17 17 16 15 14 13 13 13 12 12 12 12 12 11 11 11 12
43 44 45 47 48 47 46 46 45 43 43 43 43 42 41 40 38 37 35 33 30 28 27 27 25 22 20 19 18 17 17 17 16 15 14 14 13 14 15 16 16 16 17 18 18 19 20 20 19 18 18 18 17 16 15 14 13 13 12 11 11 11 11 11 11 11 11 12 12
42 43 44 45 46 47 46 45 43 41 41 41 42 41 40 38 37 35 33 30 27 26 25 24 22 21 20 18 17 17 16 15 14 13 13 13 14 14 15 16 16 17 18 20 21 22 21 20 19 18 18 18 17 16 15 14 13 12 11 10 10 10 10 11 11 12 13 14 15
40 40 41 43 45 45 45 45 42 40 39 39 40 40 39 37 35 33 31 27 26 24 23 22 21 20 19 18 17 17 16 15 14 13 13 13 14 14 15 15 16 18 20 22 25 26 24 22 21 19 18 18 17 16 14 13 13 12 11 10 10 10 10 11 12 13 14 16 17
36 38 39 41 44 45 45 44 40 38 36 37 38 38 37 35 33 31 28 26 24 23 22 21 20 19 19 18 17 17 16 15 15 14 13 13 14 14 15 15 17 20 24 25 27 27 26 25 23 21 18 17 16 15 14 13 13 12 11 11 10 10 11 12 13 14 15 16 17
33 35 37 40 42 43 43 41 39 36 35 35 36 35 34 32 31 29 27 24 23 22 21 20 19 19 18 17 16 16 16 17 16 14 13 14 14 15 16 17 19 22 26 27 28 28 27 27 25 23 20 17 16 15 14 13 12 12 11 9 10 10 11 12 13 14 15 15 16
31 33 36 39 41 41 40 39 36 35 34 33 33 33 31 30 29 27 25 23 22 21 20 20 19 19 19 18 17 16 15 16 16 15 14 14 14 15 16 18 20 23 27 28 29 29 28 27 26 24 22 18 16 15 13 12 11 10 9 9 10 10 11 12 13 13 14 14 14
29 31 33 36 39 39 38 37 35 34 33 31 31 31 30 28 27 26 24 22 21 21 21 21 21 20 20 19 18 17 16 16 15 15 15 14 15 16 18 19 21 24 27 30 30 29 28 27 26 25 23 20 17 14 13 11 10 9 9 9 10 11 11 12 12 13 13 13 14
29 30 31 33 36 37 36 35 34 32 31 30 29 29 28 27 26 24 22 21 21 22 22 22 22 21 20 19 18 18 17 18 16 16 15 15 16 17 18 21 22 26 29 31 30 29 29 28 27 25 23 21 16 13 11 10 9 9 9 10 10 11 11 12 12 12 13 13 13
32 31 30 31 32 34 35 34 32 31 29 28 27 27 27 26 24 23 22 22 22 22 23 22 22 20 20 20 19 19 19 18 18 17 16 16 17 19 20 22 24 27 29 31 30 30 29 28 26 25 22 20 15 12 10 9 9 9 9 10 10 10 10 11 11 11 11 12 12
37 35 32 30 31 32 33 32 31 29 27 27 27 26 26 25 24 23 23 23 23 23 22 22 21 21 20 20 20 20 20 19 18 17 17 17 18 20 22 24 26 27 30 31 30 29 28 27 26 24 22 19 14 11 9 9 9 9 9 10 10 10 10 10 10 10 10 10 10
41 40 36 32 31 31 31 30 29 28 27 26 26 25 25 24 24 24 23 23 24 23 22 22 21 21 21 20 20 20 20 19 18 18 18 19 21 22 24 25 27 28 30 31 30 29 28 27 25 23 21 18 13 10 9 9 9 9 9 9 9 9 9 9 9 9 9 9 9
41 41 40 37 33 31 30 31 31 31 30 28 27 27 26 25 24 24 24 24 24 23 22 22 21 21 20 20 20 20 20 19 18 19 19 21 22 24 25 26 27 29 30 31 29 28 27 25 23 22 20 17 13 10 9 9 9 9 8 8 9 9 9 9 9 9 9 9 9
39 40 40 39 35 31 31 32 32 32 31 30 29 28 27 26 25 24 24 24 24 24 23 23 22 21 21 21 21 20 19 18 18 19 21 22 23 24 25 26 27 29 30 30 28 27 26 24 22 21 18 15 11 9 8 8 8 8 8 8 8 8 8 9 9 9 9 9 9
36 37 37 36 33 31 31 31 31 31 31 30 30 29 28 26 26 25 25 25 25 25 25 25 24 22 22 21 20 20 19 18 19 20 22 23 24 25 26 27 27 29 30 29 27 27 25 23 22 20 17 13 9 8 8 7 7 7 7 7 7 8 8 8 9 9 9 9 8
35 35 34 33 31 31 31 30 31 31 30 30 30 29 28 27 26 26 26 26 27 27 27 27 25 23 22 21 21 20 20 20 21 22 23 24 25 26 26 27 27 27 28 28 27 26 24 23 21 18 15 11 9 8 8 7 7 7 7 7 7 7 7 7 8 8 9 9 9
34 32 31 31 31 31 31 30 31 31 31 29 28 27 27 26 26 26 27 27 28 28 29 28 26 24 22 21 21 21 22 21 22 22 23 24 25 26 26 27 26 26 27 27 26 25 24 22 21 18 14 10 9 8 8 7 7 7 6 6 6 6 6 6 7 8 9 10 12
31 31 30 30 31 31 31 30 31 31 31 28 27 27 26 26 26 27 27 28 29 30 30 29 27 24 22 22 22 22 22 22 22 23 24 25 26 26 26 26 25 25 26 26 26 25 23 22 20 18 15 10 9 8 8 7 7 6 6 6 5 5 5 5 6 6 8 10 15
31 30 29 30 31 31 30 30 31 31 30 28 27 26 26 27 27 28 28 29 31 31 31 30 27 25 22 22 22 21 22 22 23 24 24 25 27 27 27 25 24 25 25 26 25 24 23 22 20 18 15 10 9 8 8 7 6 6 5 5 5 5 4 4 4 4 5 7 11
31 31 30 30 30 30 30 30 30 30 29 27 27 27 27 28 29 29 29 30 31 32 32 31 28 25 22 22 21 21 21 22 23 24 25 26 27 27 26 24 24 24 24 25 25 24 23 22 21 18 15 10 9 8 7 7 6 6 5 5 5 4 4 4 4 4 4 4 5